Date,TemperatureHighF,TemperatureAvgF,TemperatureLowF,DewpointHighF,DewpointAvgF,DewpointLowF,HumidityHigh,HumidityAvg,HumidityLow,PressureMaxIn,PressureMinIn,WindSpeedMaxMPH,WindSpeedAvgMPH,GustSpeedMaxMPH,PrecipitationSumIn
2013-1-1,22.4,16.9,5.8,19.1,11.3,-1.3,87,78,68,30.35,30.18,14,2,14,0.00
2013-1-2,33.1,21.4,10.0,25.4,14.9,4.2,82,76,71,30.32,30.19,10,2,10,0.02
2013-1-3,35.5,27.8,18.8,28.5,21.6,11.2,86,77,68,30.45,30.31,12,1,12,0.02
2013-1-4,40.2,28.3,14.1,29.0,20.9,7.1,85,74,63,30.44,30.27,12,2,12,0.01
2013-1-5,42.5,35.4,28.8,33.6,27.3,21.6,76,72,68,30.28,30.09,15,3,15,0.00
2013-1-6,39.3,28.9,21.8,26.3,20.1,14.0,78,70,56,30.42,30.19,15,2,15,0.00
2013-1-7,48.5,36.8,27.5,30.2,23.7,18.3,69,59,47,30.32,30.05,18,4,18,0.00
2013-1-8,53.5,42.2,34.0,35.2,29.8,25.1,71,62,47,30.20,29.97,16,4,16,0.00
2013-1-9,52.8,40.2,30.4,38.9,30.4,22.4,78,68,55,30.42,30.20,13,1,13,0.00
2013-1-10,50.1,43.9,38.6,50.1,39.2,29.8,100,85,58,30.33,29.73,18,3,18,0.34
2013-1-11,58.3,53.7,48.0,50.5,48.3,39.7,100,83,57,29.74,29.57,19,5,19,0.00
2013-1-12,55.0,29.7,21.4,39.6,17.2,9.1,68,59,48,30.10,29.72,21,6,21,0.00
2013-1-13,26.6,18.4,11.7,12.1,6.2,0.5,66,59,50,30.41,30.07,16,3,16,0.00
2013-1-14,29.5,18.2,8.6,13.5,5.7,-1.2,68,58,44,30.56,30.41,10,1,10,0.00
2013-1-15,31.3,21.0,12.3,16.6,8.8,1.9,71,59,45,30.45,30.23,6,0,6,0.00
2013-1-16,45.5,31.1,18.3,28.0,18.5,6.9,68,60,50,30.23,30.07,14,2,14,0.00
2013-1-17,46.8,35.6,25.7,31.1,25.8,15.9,82,68,54,30.49,30.22,13,2,13,0.00
2013-1-18,55.6,42.9,32.7,35.1,29.0,24.1,74,59,40,30.43,30.03,23,6,23,0.00
2013-1-19,60.7,47.7,34.3,35.7,29.1,15.8,66,50,31,30.24,29.98,15,4,15,0.00
2013-1-20,41.1,29.5,20.2,25.3,11.5,4.1,56,47,39,30.42,30.24,13,4,14,0.00
2013-1-21,22.1,17.9,14.0,9.5,4.5,0.2,65,55,48,30.50,30.41,13,3,13,0.00
2013-1-22,29.3,20.4,13.3,11.9,5.8,0.6,59,53,46,30.46,30.31,10,2,10,0.00
2013-1-23,46.4,29.5,14.3,28.1,15.0,3.6,67,55,42,30.44,30.22,14,2,14,0.00
2013-1-24,26.3,19.9,9.9,11.7,5.3,-2.5,58,53,46,30.52,30.21,16,4,16,0.00
2013-1-25,46.0,32.0,20.6,23.9,14.7,5.8,58,49,39,30.28,30.19,10,1,10,0.00
2013-1-26,55.7,40.9,27.2,30.4,23.1,14.4,66,51,32,30.30,30.09,13,1,13,0.00
2013-1-27,59.5,50.6,40.5,55.3,43.4,25.2,86,77,47,30.09,29.74,18,5,18,0.08
2013-1-28,73.3,66.9,58.7,60.9,58.2,55.3,91,74,59,29.83,29.63,21,6,21,0.00
2013-1-29,67.3,48.6,35.9,62.0,45.7,34.9,97,90,81,29.62,29.39,15,5,21,1.23
2013-1-30,36.2,26.9,20.6,35.4,22.9,13.5,98,85,72,30.01,29.48,22,5,22,0.04
2013-1-31,24.1,21.1,18.8,18.8,14.1,8.5,80,74,62,30.30,29.98,21,4,21,0.00
2013-2-1,25.4,22.2,6.5,14.1,10.9,-2.4,69,61,58,30.53,30.21,8,2,8,0.00
2013-2-2,48.8,36.4,25.0,34.8,25.1,13.8,68,63,58,30.26,30.11,12,2,12,0.00
2013-2-3,48.2,39.9,31.8,29.5,25.3,22.4,69,56,41,30.29,29.85,11,3,14,0.00
2013-2-4,48.6,38.8,23.2,31.3,25.3,15.6,76,59,48,29.99,29.77,16,4,16,0.00
2013-2-5,57.5,37.7,23.5,39.5,26.6,17.6,85,66,43,30.12,29.92,13,2,13,0.00
2013-2-6,60.7,45.8,27.9,41.5,32.7,17.6,73,61,48,30.12,29.89,14,2,14,0.00
2013-2-7,50.4,43.6,31.5,46.1,38.2,26.6,92,81,61,30.20,29.84,23,4,23,0.82
2013-2-8,41.9,33.3,29.7,33.5,27.5,24.3,84,79,69,30.36,30.20,12,2,13,0.00
2013-2-9,46.8,35.6,29.0,38.3,30.3,25.2,91,81,64,30.24,29.77,15,3,15,0.04
2013-2-10,50.4,43.9,36.5,47.7,35.2,22.8,100,73,53,29.92,29.48,28,7,28,0.10
2013-2-11,46.4,36.9,29.8,29.6,23.2,16.7,69,58,44,30.18,29.92,15,2,15,0.00
2013-2-12,41.1,33.5,23.3,29.5,22.4,12.9,73,64,55,30.19,29.98,4,0,4,0.00
2013-2-13,54.7,39.8,26.7,34.0,25.2,17.5,77,58,35,29.98,29.83,16,2,16,0.00
2013-2-14,48.8,41.2,33.5,32.9,26.5,20.6,68,56,43,30.18,29.84,18,2,18,0.00
2013-2-15,37.5,29.6,20.6,21.3,14.4,7.4,69,53,38,30.39,30.17,19,3,19,0.00
2013-2-16,33.7,27.5,11.7,24.5,18.9,5.6,82,70,59,30.35,30.10,13,2,13,0.04
2013-2-17,58.4,43.0,26.4,36.8,27.8,18.0,72,56,42,30.10,29.68,14,2,14,0.00
2013-2-18,53.6,43.6,28.2,44.8,31.3,16.5,79,63,44,30.08,29.52,26,6,26,0.04
2013-2-19,35.0,26.8,21.0,16.7,10.9,-1.1,69,52,33,30.39,30.08,17,3,17,0.00
2013-2-20,25.1,21.3,16.5,11.3,5.6,-1.2,59,50,42,30.43,30.23,14,3,14,0.00
2013-2-21,26.7,23.8,20.5,23.9,17.7,11.3,90,78,59,30.23,29.80,21,4,21,0.00
2013-2-22,27.6,22.5,14.9,22.9,18.0,9.5,92,83,73,30.12,29.81,11,1,11,0.18
2013-2-23,34.0,20.0,2.0,23.7,13.1,-3.3,84,74,63,30.12,30.00,6,1,6,0.04
2013-2-24,45.4,30.7,9.7,31.5,20.8,3.7,82,67,55,30.06,29.93,12,2,12,0.00
2013-2-25,36.9,33.2,29.8,31.5,25.8,21.3,90,74,64,29.98,29.65,24,6,24,0.04
2013-2-26,33.4,32.2,30.9,33.0,31.4,30.2,100,97,90,29.87,29.56,23,4,23,0.17
2013-2-27,33.4,31.0,28.7,32.9,30.5,28.7,100,98,94,30.07,29.85,18,3,18,0.17
2013-2-28,31.9,29.8,27.5,30.6,28.1,25.5,96,94,91,30.23,30.06,16,3,16,0.01
2013-3-1,30.4,26.7,23.5,27.0,23.8,20.0,92,89,86,30.34,30.20,14,3,14,0.01
2013-3-2,31.6,25.4,20.2,24.0,20.2,13.4,89,81,72,30.40,30.22,10,2,10,0.00
2013-3-3,42.3,33.5,22.1,31.8,25.5,16.9,81,73,65,30.23,29.76,11,2,11,0.00
2013-3-4,50.4,40.5,34.6,36.6,30.3,26.2,78,67,59,29.96,29.68,19,2,19,0.01
2013-3-5,36.2,31.9,26.4,30.1,21.5,15.7,83,65,56,30.37,29.96,22,5,22,0.04
2013-3-6,37.8,28.9,23.0,23.7,18.1,14.0,68,64,56,30.46,30.31,17,2,17,0.00
2013-3-7,46.0,34.3,23.5,32.5,24.3,14.9,76,67,57,30.33,30.16,13,2,13,0.00
2013-3-8,55.0,45.3,36.3,42.2,34.6,26.8,73,66,61,30.22,29.97,12,2,12,0.00
2013-3-9,57.6,51.9,45.4,54.9,45.9,37.4,94,80,67,29.98,29.57,11,2,11,0.52
2013-3-10,54.2,40.5,26.7,52.5,39.1,23.6,99,95,88,29.90,29.53,13,3,20,0.02
2013-3-11,37.2,29.0,24.8,28.1,23.1,20.7,88,79,66,30.06,29.87,11,2,12,0.00
2013-3-12,46.7,36.7,29.8,32.7,23.9,18.2,74,60,45,30.36,30.03,22,3,22,0.00
2013-3-13,45.2,33.5,23.9,26.5,20.6,15.2,70,59,45,30.50,30.34,10,1,10,0.00
2013-3-14,71.3,49.5,32.5,44.2,31.6,20.8,64,51,32,30.34,30.05,16,2,16,0.00
2013-3-15,79.6,58.2,36.5,51.3,40.4,27.0,74,54,30,30.08,29.64,14,3,14,0.00
2013-3-16,61.2,44.1,36.9,43.5,33.7,26.3,77,67,51,30.06,29.66,22,7,22,0.00
2013-3-17,36.9,33.8,32.2,31.5,27.8,23.3,91,79,66,30.06,29.77,17,5,17,0.08
2013-3-18,52.9,41.4,34.0,41.5,31.1,16.0,95,71,38,30.07,29.75,18,3,18,0.01
2013-3-19,39.1,32.8,25.6,34.4,22.5,10.2,87,66,45,30.28,30.06,7,0,8,0.08
2013-3-20,38.2,30.4,21.4,30.8,17.7,5.2,89,61,37,30.42,30.15,20,4,20,0.01
2013-3-21,28.5,26.0,19.9,24.6,15.8,6.7,85,66,52,30.15,29.95,14,2,14,0.00
2013-3-22,32.8,30.8,28.5,30.9,28.3,24.6,93,90,85,30.03,29.96,10,2,10,0.01
2013-3-23,37.5,33.4,31.8,32.2,30.1,28.0,93,88,75,30.04,29.85,17,4,17,0.06
2013-3-24,32.4,28.1,22.7,30.6,26.5,19.4,95,93,88,30.11,29.81,22,2,22,0.13
2013-3-25,31.6,26.4,19.5,26.5,22.5,16.3,90,85,80,30.37,30.09,18,3,18,0.09
2013-3-26,36.0,27.5,20.3,25.7,20.5,13.5,86,75,62,30.45,30.33,8,1,8,0.03
2013-3-27,48.5,35.8,19.9,34.8,26.4,12.7,78,69,58,30.35,30.22,13,2,13,0.00
2013-3-28,62.7,50.0,36.6,43.2,36.8,28.3,73,61,48,30.24,30.12,9,1,9,0.00
2013-3-29,66.6,54.3,42.5,48.5,40.1,33.7,82,60,40,30.19,30.07,12,2,13,0.00
2013-3-30,66.3,56.4,50.7,58.2,49.6,40.6,90,78,68,30.07,29.84,15,1,15,0.12
2013-3-31,64.5,54.5,41.8,50.7,41.6,25.6,90,65,36,29.95,29.89,17,2,17,0.01
2013-4-1,47.6,40.4,32.9,32.0,22.3,14.6,69,49,35,30.29,29.96,19,5,19,0.00
2013-4-2,48.5,38.4,29.4,25.0,19.5,14.4,56,47,35,30.35,30.26,12,2,12,0.00
2013-4-3,50.2,40.3,29.7,27.4,22.6,16.7,63,50,37,30.37,30.24,15,2,15,0.00
2013-4-4,61.8,47.9,35.6,30.2,25.1,18.9,54,42,27,30.25,30.06,13,2,13,0.00
2013-4-5,68.8,54.7,35.9,44.0,36.2,24.6,67,50,36,30.16,29.84,14,2,14,0.00
2013-4-6,75.8,62.6,50.2,51.2,42.7,34.8,64,49,31,29.85,29.63,23,6,23,0.00
2013-4-7,70.6,58.1,40.9,54.1,45.5,32.4,84,64,46,29.84,29.63,13,1,13,0.14
2013-4-8,72.0,64.6,56.9,64.4,59.1,54.1,93,83,73,29.69,29.64,16,3,16,0.07
2013-4-9,70.8,66.7,56.5,62.9,60.1,51.8,88,79,74,29.73,29.60,16,3,16,0.33
2013-4-10,55.9,40.9,0.0,52.1,39.1,0.0,95,93,87,29.79,29.68,27,3,27,0.06
2013-4-11,41.2,35.9,32.9,34.9,30.4,25.6,96,81,66,29.80,29.73,14,2,14,0.00
2013-4-12,52.6,39.7,30.1,36.9,29.6,24.4,81,68,51,30.04,29.80,14,2,14,0.00
2013-4-13,64.8,48.6,30.4,46.3,36.9,23.9,81,65,50,30.06,29.71,13,1,13,0.00
2013-4-14,72.8,62.5,54.2,52.3,47.4,37.6,68,58,47,29.70,29.46,23,5,23,0.02
2013-4-15,56.7,48.7,44.3,41.4,35.2,30.8,75,60,45,29.99,29.71,16,4,16,0.18
2013-4-16,46.0,43.9,41.9,36.8,33.0,30.4,73,65,59,30.13,29.98,22,6,22,0.00
2013-4-17,53.9,48.9,44.9,52.8,46.3,36.8,99,91,73,30.07,29.62,14,3,14,0.34
2013-4-18,47.6,39.5,36.0,47.3,37.0,28.8,99,91,74,29.95,29.54,17,4,17,0.37
2013-4-19,52.0,40.6,31.3,31.1,27.0,19.9,76,60,42,30.11,29.92,17,3,17,0.00
2013-4-20,56.5,44.3,28.4,36.0,29.2,18.8,70,56,43,30.25,30.11,14,2,14,0.00
2013-4-21,66.6,55.5,46.0,44.7,38.5,31.1,67,53,40,30.21,30.09,13,3,13,0.00
2013-4-22,65.3,55.8,47.1,46.5,42.4,36.5,79,61,49,30.12,29.87,14,2,14,0.03
2013-4-23,48.8,36.4,33.5,42.4,33.3,29.8,92,88,79,30.20,29.97,23,7,23,0.64
2013-4-24,53.2,40.9,28.8,35.8,31.3,25.1,90,70,46,30.29,30.18,14,2,14,0.03
2013-4-25,67.3,52.6,36.8,44.3,36.8,28.9,76,57,37,30.31,30.13,13,2,13,0.00
2013-4-26,55.0,51.1,47.9,48.3,44.3,36.7,93,78,54,30.20,30.13,17,2,17,0.42
2013-4-27,54.2,50.3,47.1,51.9,48.3,45.7,96,93,88,30.18,30.00,9,2,9,0.26
2013-4-28,73.7,58.6,41.6,58.9,51.3,40.3,97,79,50,30.00,29.78,12,2,12,0.01
2013-4-29,82.4,69.7,57.2,64.9,58.3,51.4,82,68,51,29.79,29.60,16,4,16,0.00
2013-4-30,81.4,72.9,63.2,57.2,53.4,46.1,70,52,37,29.77,29.61,21,5,21,0.00
2013-5-1,81.8,65.7,42.5,62.3,51.4,35.1,78,61,46,30.13,29.77,25,4,25,0.15
2013-5-2,42.3,37.1,32.4,37.6,34.2,30.1,98,90,78,30.40,30.12,25,8,25,0.58
2013-5-3,38.2,36.3,33.4,37.7,36.0,32.9,100,99,97,30.33,29.93,22,5,22,0.41
2013-5-4,46.8,40.2,32.9,46.0,39.5,32.7,100,97,92,30.04,29.85,14,3,14,0.15
2013-5-5,56.0,49.1,43.6,54.3,48.0,42.5,100,96,91,30.11,30.01,16,4,16,0.02
2013-5-6,66.3,55.7,49.6,60.3,52.4,47.0,96,89,74,30.10,30.01,12,3,12,0.00
2013-5-7,74.7,60.8,43.8,61.8,50.7,41.6,95,72,43,30.07,29.95,9,1,9,0.00
2013-5-8,73.7,63.2,51.9,60.7,54.9,44.8,88,75,61,29.99,29.86,12,2,15,0.04
2013-5-9,74.0,64.9,56.3,64.1,57.7,50.5,93,78,61,29.90,29.81,13,2,13,0.12
2013-5-10,65.2,57.5,48.0,55.7,51.5,40.6,92,81,59,30.03,29.88,15,3,15,0.00
2013-5-11,64.8,56.1,45.5,50.4,38.2,24.0,84,55,28,30.23,30.03,25,4,25,0.00
2013-5-12,66.3,52.4,34.0,37.7,31.2,21.5,67,46,28,30.27,30.13,10,1,10,0.00
2013-5-13,77.6,62.1,42.8,54.7,47.1,33.1,78,59,44,30.16,29.91,11,2,11,0.00
2013-5-14,91.0,76.5,64.3,55.4,51.9,45.0,69,46,23,29.91,29.75,20,5,20,0.00
2013-5-15,84.1,74.4,65.5,65.6,59.1,52.1,80,60,49,29.84,29.76,12,4,13,0.00
2013-5-16,79.8,69.4,60.4,66.8,60.8,55.8,91,75,56,29.84,29.76,11,1,11,0.00
2013-5-17,76.8,66.5,59.3,66.8,60.4,54.2,94,81,61,29.90,29.81,9,0,9,0.00
2013-5-18,84.0,72.8,58.1,70.5,65.1,54.1,92,78,62,29.89,29.68,14,2,14,0.00
2013-5-19,82.8,70.5,62.4,71.2,64.3,55.6,94,81,65,29.81,29.52,30,3,30,0.89
2013-5-20,78.6,68.0,61.2,71.1,63.5,58.5,94,86,71,29.72,29.59,9,2,13,0.01
2013-5-21,74.0,64.9,54.8,62.5,53.9,48.7,90,69,50,29.74,29.64,13,2,14,0.00
2013-5-22,67.3,61.1,54.1,53.2,50.5,47.1,80,68,59,29.93,29.70,13,1,13,0.00
2013-5-23,67.6,60.3,51.1,55.8,50.9,44.1,81,71,64,30.20,29.93,16,3,16,0.00
2013-5-24,72.1,61.5,47.0,55.8,49.9,42.1,91,68,48,30.29,30.10,16,2,16,0.01
2013-5-25,81.6,70.6,60.5,66.4,57.8,47.0,76,64,55,30.14,29.96,15,3,15,0.00
2013-5-26,82.8,75.1,67.9,70.4,66.5,62.9,88,75,62,30.01,29.84,16,3,16,0.00
2013-5-27,80.9,71.7,63.4,73.9,65.4,59.4,96,81,71,29.88,29.62,21,4,21,1.16
2013-5-28,77.7,74.2,71.6,73.2,68.4,65.5,89,82,73,29.75,29.59,15,2,15,0.04
2013-5-29,79.9,74.2,65.0,69.9,66.4,59.6,87,77,67,29.76,29.59,19,4,19,0.09
2013-5-30,72.8,65.0,62.3,68.3,62.3,59.2,96,91,81,29.70,29.57,15,3,15,1.24
2013-5-31,77.9,67.8,59.0,72.5,65.0,57.9,98,91,73,29.71,29.62,21,2,21,2.72
2013-6-1,69.1,64.2,60.1,64.2,57.4,51.4,94,79,61,29.95,29.65,9,1,14,0.00
2013-6-2,63.2,57.5,47.4,53.6,49.3,41.1,85,74,61,30.07,29.94,12,3,12,0.00
2013-6-3,73.3,60.1,43.2,58.0,51.1,39.9,91,73,58,30.06,29.87,15,2,15,0.00
2013-6-4,75.3,66.2,61.8,68.7,60.7,55.1,91,82,73,29.93,29.81,15,2,15,0.09
2013-6-5,68.4,64.2,62.0,67.0,62.2,58.1,97,93,87,29.95,29.88,15,2,15,1.02
2013-6-6,73.5,65.3,55.6,62.1,56.7,48.1,96,76,53,29.93,29.88,14,2,14,0.00
2013-6-7,73.7,63.6,53.8,61.6,52.8,46.7,90,70,47,29.98,29.88,12,1,12,0.00
2013-6-8,80.1,68.0,53.8,62.0,56.7,46.6,86,68,53,29.92,29.73,16,2,16,0.08
2013-6-9,80.9,70.2,61.8,65.6,58.7,51.7,93,70,37,29.81,29.73,17,2,17,0.31
2013-6-10,87.2,72.9,58.1,63.9,59.2,52.6,86,65,37,29.86,29.78,8,1,9,0.00
2013-6-11,93.4,81.4,71.5,69.9,66.0,62.3,83,62,38,29.84,29.74,17,4,17,0.00
2013-6-12,93.8,83.9,76.0,71.9,69.0,60.6,78,62,44,29.86,29.69,20,5,20,0.00
2013-6-13,83.8,73.2,62.3,63.8,59.0,52.6,75,62,48,30.00,29.86,22,3,22,0.00
2013-6-14,89.3,76.9,63.9,73.6,67.6,57.4,90,74,59,29.97,29.82,14,2,14,0.00
2013-6-15,89.3,75.7,67.4,76.4,69.5,57.2,93,82,56,29.95,29.82,29,2,29,1.20
2013-6-16,83.4,74.2,66.8,76.8,70.8,65.0,97,89,77,29.92,29.84,8,1,8,0.00
2013-6-17,80.1,72.5,63.5,71.9,67.5,59.6,94,85,72,29.95,29.84,7,0,10,0.01
2013-6-18,84.9,72.7,63.4,73.4,65.6,59.5,95,80,53,29.98,29.92,12,1,12,0.05
2013-6-19,86.7,75.2,63.9,72.5,66.6,62.1,96,77,52,29.99,29.90,10,1,10,0.01
2013-6-20,88.8,79.1,69.3,74.3,70.1,64.1,89,75,58,29.96,29.83,15,2,15,0.00
2013-6-21,91.0,82.4,75.3,76.0,71.7,66.9,88,71,54,29.91,29.84,15,3,15,0.00
2013-6-22,91.2,82.0,73.9,73.9,69.6,66.1,81,67,49,29.93,29.79,18,3,18,0.00
2013-6-23,90.1,81.3,73.5,74.9,70.7,67.2,86,71,52,29.88,29.75,19,2,19,0.00
2013-6-24,89.5,82.0,76.3,72.2,68.6,65.1,77,64,48,29.90,29.73,17,4,17,0.01
2013-6-25,88.8,80.9,75.4,75.2,69.7,66.6,86,69,56,29.83,29.66,18,4,18,0.04
2013-6-26,97.3,84.1,73.3,75.7,67.7,56.7,87,62,27,29.82,29.65,14,2,14,0.00
2013-6-27,88.6,77.8,68.3,77.7,68.3,61.4,87,73,61,29.94,29.77,19,1,19,0.24
2013-6-28,85.5,77.1,67.8,75.1,64.3,54.3,96,68,39,29.89,29.81,20,2,20,0.02
2013-6-29,82.4,73.9,63.2,61.8,56.4,52.7,73,56,37,29.83,29.75,26,4,26,0.00
2013-6-30,77.2,69.9,60.7,61.7,56.6,53.1,80,64,50,29.99,29.83,19,4,19,0.00
2013-7-1,80.1,70.0,59.3,60.3,52.8,47.7,79,57,36,30.07,29.99,20,4,20,0.00
2013-7-2,81.2,70.3,57.5,60.0,52.5,48.1,81,56,35,30.09,30.01,14,1,14,0.00
2013-7-3,86.1,70.2,58.1,59.6,54.5,47.0,77,60,32,30.04,29.93,17,1,17,0.34
2013-7-4,86.3,74.1,61.3,62.4,56.3,52.8,76,56,34,30.00,29.90,9,1,9,0.01
2013-7-5,89.3,77.3,64.2,65.1,60.0,56.0,78,57,37,29.95,29.84,12,2,13,0.00
2013-7-6,87.2,76.4,68.1,67.5,62.4,58.7,73,63,48,29.94,29.85,11,2,13,0.02
2013-7-7,89.7,81.0,73.3,69.2,65.7,63.0,74,61,47,29.93,29.85,16,3,16,0.04
2013-7-8,94.7,83.9,75.1,70.8,66.6,63.5,70,57,40,29.97,29.90,10,2,12,0.00
2013-7-9,98.7,87.2,77.0,75.6,69.9,66.2,74,58,39,29.94,29.77,14,3,14,0.00
2013-7-10,90.1,83.1,71.8,73.0,65.8,58.1,68,57,35,29.95,29.82,15,2,15,0.00
2013-7-11,86.5,77.5,67.9,62.5,59.5,56.2,72,55,40,30.03,29.92,13,1,13,0.00
2013-7-12,89.5,78.2,67.4,66.4,61.6,57.2,76,58,46,30.00,29.91,14,2,14,0.00
2013-7-13,91.0,79.2,68.8,67.7,62.1,56.7,66,56,46,29.98,29.89,14,2,14,0.00
2013-7-14,85.9,76.9,65.5,64.3,59.8,55.2,81,57,36,30.05,29.93,23,2,23,0.00
2013-7-15,88.8,78.9,68.6,70.1,65.3,59.3,85,64,47,30.12,30.03,13,1,13,0.00
2013-7-16,92.3,81.9,70.9,73.3,67.3,62.1,88,64,39,30.20,30.11,8,1,8,0.00
2013-7-17,92.3,82.2,70.9,74.0,68.9,64.6,84,65,47,30.26,30.12,5,0,9,0.00
2013-7-18,95.1,83.6,68.9,73.4,66.7,61.5,89,60,36,30.14,29.93,13,1,13,0.00
2013-7-19,96.6,85.5,73.5,69.9,64.8,61.0,72,52,32,29.94,29.78,10,2,12,0.00
2013-7-20,87.6,78.2,73.2,74.6,68.6,63.5,90,73,53,29.87,29.78,10,1,10,0.18
2013-7-21,87.2,77.0,70.4,73.1,69.6,66.2,96,79,55,29.87,29.75,9,1,9,0.01
2013-7-22,91.6,80.6,69.1,75.2,69.1,65.0,93,70,46,29.80,29.71,12,2,12,0.00
2013-7-23,85.9,78.8,70.4,75.8,69.3,63.8,90,73,59,29.86,29.75,13,2,13,0.00
2013-7-24,85.1,75.3,66.9,63.8,59.2,55.8,75,59,40,30.00,29.85,13,2,14,0.00
2013-7-25,85.5,73.9,63.9,67.9,62.4,54.7,85,69,47,30.05,29.95,10,0,10,0.02
2013-7-26,85.1,75.1,68.9,72.0,65.0,50.8,91,73,45,30.01,29.92,17,2,17,0.02
2013-7-27,77.6,66.9,55.0,57.5,52.7,46.8,82,62,39,30.07,29.94,14,2,14,0.00
2013-7-28,74.2,66.4,56.7,58.3,54.1,51.3,86,66,48,30.03,29.98,6,0,6,0.00
2013-7-29,71.8,66.7,61.3,71.2,62.6,54.5,98,87,68,30.05,29.92,12,1,12,0.56
2013-7-30,81.6,75.4,71.5,77.2,73.2,70.1,100,93,80,30.00,29.92,10,1,10,0.77
2013-7-31,83.6,75.4,68.8,73.1,68.4,62.9,96,80,57,30.07,29.97,11,1,11,0.00
2013-8-1,88.2,77.0,64.2,72.7,66.6,61.8,94,73,48,30.05,29.90,10,0,10,0.00
2013-8-2,87.6,76.7,67.6,77.2,70.6,64.2,94,82,66,29.93,29.78,12,2,12,0.41
2013-8-3,82.6,77.0,72.7,74.7,71.8,69.2,96,84,72,30.06,29.84,11,1,11,0.08
2013-8-4,75.3,71.2,67.3,71.9,68.2,63.0,100,91,80,30.09,29.97,10,1,10,0.29
2013-8-5,84.3,76.1,70.1,77.4,73.5,70.0,100,92,77,30.00,29.77,5,0,7,0.01
2013-8-6,87.4,78.8,70.4,76.9,73.7,69.2,97,85,68,29.82,29.73,11,1,11,0.16
2013-8-7,84.9,77.3,71.3,76.5,72.8,65.1,96,86,74,29.89,29.72,17,1,17,0.33
2013-8-8,73.5,71.4,68.6,68.6,66.1,63.9,88,83,78,29.96,29.81,15,2,15,0.00
2013-8-9,73.3,70.1,65.2,70.5,66.2,62.5,93,87,81,30.08,29.93,8,0,8,0.04
2013-8-10,82.8,72.3,63.5,68.9,64.1,57.9,97,77,54,30.15,30.04,13,1,13,0.01
2013-8-11,86.1,74.7,62.3,69.7,64.5,57.5,87,72,55,30.09,29.96,7,0,8,0.00
2013-8-12,82.4,74.3,68.3,73.6,68.7,63.9,96,83,65,29.99,29.90,13,2,13,0.61
2013-8-13,78.8,72.0,64.5,67.5,62.9,57.1,91,74,54,30.07,29.97,10,1,10,0.00
2013-8-14,77.2,68.9,61.6,64.4,59.4,54.0,89,73,54,30.15,30.05,9,1,9,0.00
2013-8-15,76.0,67.3,62.0,61.3,57.7,54.7,82,71,59,30.08,29.96,9,1,9,0.03
2013-8-16,76.3,67.2,58.1,61.1,56.7,51.3,84,70,55,30.12,30.04,10,1,10,0.00
2013-8-17,77.6,65.4,52.3,62.4,54.8,49.4,92,70,48,30.17,30.07,12,1,12,0.00
2013-8-18,81.8,68.5,54.4,66.7,58.2,50.2,92,71,51,30.14,30.03,8,1,8,0.00
2013-8-19,84.5,72.3,58.6,71.3,62.4,54.8,94,73,52,30.08,29.96,10,1,10,0.00
2013-8-20,87.6,76.9,66.8,69.8,65.3,61.6,87,69,49,30.02,29.94,11,1,11,0.00
2013-8-21,89.0,78.1,67.8,70.8,67.1,62.8,85,70,50,30.03,29.94,8,1,8,0.00
2013-8-22,89.7,79.2,70.6,72.0,68.6,64.3,88,71,52,30.05,29.95,7,1,7,0.00
2013-8-23,90.3,78.9,67.3,76.0,68.1,64.4,94,72,47,30.03,29.95,11,1,11,0.00
2013-8-24,91.0,80.6,71.3,75.3,70.1,66.3,90,72,52,30.07,29.98,12,1,12,0.00
2013-8-25,92.1,81.3,71.8,75.3,70.2,66.6,89,70,50,30.15,30.05,10,1,10,0.00
2013-8-26,92.5,82.2,72.8,74.7,70.2,68.3,88,69,47,30.10,29.99,12,2,12,0.00
2013-8-27,92.1,81.5,71.3,70.9,66.9,62.0,87,64,40,30.01,29.92,18,3,18,0.00
2013-8-28,91.6,80.4,70.9,73.7,68.1,63.5,88,68,48,29.99,29.93,11,2,11,0.00
2013-8-29,94.9,83.9,74.4,75.3,70.6,67.9,86,66,44,29.97,29.88,10,1,10,0.00
2013-8-30,98.0,86.1,75.8,73.9,69.4,64.7,81,60,34,29.89,29.75,11,2,11,0.00
2013-8-31,92.5,82.3,73.2,75.2,70.2,65.9,82,68,48,29.79,29.71,10,1,10,0.02
2013-9-1,85.5,75.9,68.6,76.2,68.8,60.8,95,80,62,29.90,29.69,38,2,38,1.44
2013-9-2,80.7,71.2,61.2,66.1,60.5,56.2,90,70,49,30.01,29.90,11,2,11,0.00
2013-9-3,84.5,70.8,57.6,63.0,57.6,53.7,87,65,40,30.07,29.98,6,0,6,0.00
2013-9-4,84.9,70.7,56.6,67.5,59.2,53.4,91,70,44,30.13,30.01,6,0,6,0.01
2013-9-5,86.5,73.1,58.7,70.0,61.6,56.0,93,70,47,30.16,30.06,7,0,7,0.00
2013-9-6,89.0,77.2,65.6,68.8,63.6,58.6,84,64,45,30.09,29.93,9,1,9,0.00
2013-9-7,95.1,81.6,70.4,69.5,65.9,61.3,78,61,40,29.94,29.82,12,2,12,0.00
2013-9-8,98.5,85.8,74.9,71.7,66.7,64.5,72,55,34,29.84,29.74,7,2,11,0.00
2013-9-9,93.8,83.0,73.3,68.7,63.5,58.2,73,54,32,29.88,29.80,20,2,20,0.00
2013-9-10,92.7,81.9,72.7,68.9,64.0,60.9,72,56,39,30.01,29.88,14,3,14,0.00
2013-9-11,92.7,80.6,67.1,67.4,61.5,55.6,78,55,31,30.07,29.96,11,1,11,0.00
2013-9-12,83.6,76.5,70.4,72.4,64.2,46.8,90,67,43,30.08,29.99,12,2,12,0.04
2013-9-13,74.6,65.7,52.8,54.0,47.5,42.4,70,53,40,30.14,30.02,15,1,15,0.00
2013-9-14,78.1,65.4,52.3,55.1,49.8,43.4,75,58,41,30.08,29.92,6,1,10,0.00
2013-9-15,85.7,72.2,64.7,65.9,58.9,51.5,84,64,50,30.08,29.90,15,3,15,0.02
2013-9-16,65.6,60.7,59.3,60.9,58.8,57.6,97,94,84,30.21,30.08,13,2,13,0.29
2013-9-17,71.3,65.4,61.0,70.2,64.7,60.2,100,98,94,30.16,29.94,8,2,12,0.56
2013-9-18,88.0,76.5,67.3,75.4,69.5,66.7,99,81,56,29.94,29.76,15,2,15,0.01
2013-9-19,91.0,78.0,67.3,71.2,67.3,61.3,92,72,46,29.87,29.67,18,4,18,0.79
2013-9-20,69.1,62.4,50.8,65.2,53.5,43.8,93,74,52,30.01,29.84,13,3,13,0.01
2013-9-21,74.6,59.6,46.1,55.6,48.7,43.0,91,70,42,30.03,29.90,7,0,7,0.00
2013-9-22,75.6,63.5,51.9,55.5,50.0,46.0,82,63,41,29.96,29.84,11,1,11,0.00
2013-9-23,75.8,64.7,53.8,57.1,52.3,47.6,84,65,47,29.90,29.75,15,2,15,0.00
2013-9-24,68.3,64.0,59.5,59.9,56.4,53.4,87,76,67,29.82,29.72,11,2,11,0.00
2013-9-25,77.2,65.0,55.9,68.1,60.3,54.0,97,85,68,29.87,29.79,8,1,8,0.01
2013-9-26,84.5,71.5,59.5,66.3,60.4,57.5,93,71,44,29.88,29.80,17,2,17,0.00
2013-9-27,85.7,74.4,65.8,67.7,61.5,58.8,83,66,45,29.92,29.81,12,2,12,0.00
2013-9-28,72.7,65.0,52.6,65.7,58.7,49.3,94,81,66,30.03,29.76,12,2,12,0.31
2013-9-29,73.0,57.7,42.9,61.0,49.5,41.6,97,77,49,30.09,29.94,2,0,7,0.01
2013-9-30,77.9,62.0,44.8,62.1,53.8,42.3,93,76,57,29.94,29.80,4,1,10,0.01
2013-10-1,81.6,68.6,59.0,69.6,61.6,53.8,96,79,58,29.93,29.82,3,1,9,0.00
2013-10-2,83.4,74.7,59.5,75.0,68.4,57.1,98,82,62,29.97,29.83,9,1,9,0.00
2013-10-3,84.3,74.1,66.3,74.8,68.1,63.0,95,82,61,29.84,29.68,17,3,17,0.00
2013-10-4,86.5,75.9,66.4,73.4,67.6,60.8,94,77,53,29.84,29.68,16,4,16,0.42
2013-10-5,66.4,53.9,46.0,62.7,41.4,35.0,88,63,47,30.00,29.84,8,2,13,0.02
2013-10-6,61.5,51.1,41.9,44.9,39.5,32.6,73,65,54,30.00,29.84,16,2,16,0.00
2013-10-7,72.5,56.0,41.9,48.7,42.5,35.5,80,62,37,30.14,29.99,8,1,8,0.00
2013-10-8,74.9,61.8,50.5,53.0,46.2,42.2,75,58,38,30.08,29.99,5,2,14,0.00
2013-10-9,75.6,62.3,50.8,53.6,47.7,43.9,80,61,38,30.07,29.99,3,2,11,0.00
2013-10-10,77.6,62.6,47.9,59.7,50.3,38.7,85,65,46,30.04,29.83,4,2,13,0.00
2013-10-11,75.6,69.6,57.0,65.3,61.9,51.6,86,77,68,29.84,29.73,17,3,17,0.36
2013-10-12,67.8,57.5,44.9,57.2,45.5,35.7,89,66,40,30.23,29.81,15,2,15,0.00
2013-10-13,69.8,57.6,44.1,45.5,39.6,34.6,76,54,31,30.38,30.23,16,2,16,0.00
2013-10-14,66.9,60.4,51.6,58.7,52.2,33.6,90,76,49,30.26,29.85,17,4,18,0.10
2013-10-15,60.9,54.5,44.5,58.5,46.6,35.0,94,76,55,30.06,29.84,10,2,16,0.17
2013-10-16,58.6,49.7,42.5,44.2,40.0,33.7,82,70,56,30.10,29.97,11,1,11,0.01
2013-10-17,65.3,52.0,41.6,48.3,41.1,31.2,87,68,42,30.01,29.88,16,1,16,0.00
2013-10-18,48.0,40.7,35.8,39.7,35.1,31.3,91,81,67,30.12,30.01,12,1,12,0.18
2013-10-19,61.0,45.4,33.5,47.0,37.5,31.7,96,77,47,30.11,29.90,14,2,14,0.00
2013-10-20,68.8,55.2,43.6,46.8,41.4,36.5,77,61,41,29.91,29.78,12,2,12,0.00
2013-10-21,55.3,47.5,36.3,43.9,34.8,24.9,74,62,45,30.10,29.91,16,3,16,0.00
2013-10-30,68.1,65.8,61.8,68.1,65.5,61.7,100,99,93,29.93,29.69,5,2,14,2.04
2013-10-31,63.1,52.4,48.0,63.1,51.7,46.0,100,98,91,29.69,29.51,3,1,10,0.80
2013-11-1,58.6,49.8,41.1,47.7,42.2,37.6,90,76,57,29.95,29.62,4,1,13,0.00
2013-11-2,55.1,45.7,35.9,41.0,35.6,27.1,81,69,49,30.19,29.97,4,2,13,0.00
2013-11-3,58.7,48.1,34.6,41.1,36.4,27.5,78,65,49,30.17,29.91,6,2,17,0.00
2013-11-4,58.9,55.1,50.1,50.9,45.9,39.3,82,71,59,30.08,29.87,7,3,16,0.14
2013-11-5,60.4,57.2,48.2,60.1,56.1,47.1,99,96,82,30.08,29.83,13,3,13,0.62
2013-11-6,47.9,38.7,32.7,47.1,36.0,29.4,97,90,80,30.35,29.89,17,2,17,0.19
2013-11-7,54.7,40.6,32.2,44.0,33.3,24.7,93,77,51,30.42,30.34,17,1,17,0.01
2013-11-8,63.5,49.6,31.0,42.4,34.4,25.3,81,58,35,30.34,29.90,20,4,20,0.00
2013-11-9,64.5,50.7,40.1,44.2,34.9,27.1,72,56,34,30.29,29.97,10,1,11,0.00
2013-11-10,57.2,49.8,40.1,37.7,34.0,29.3,66,55,42,30.41,30.21,9,2,9,0.00
2013-11-11,61.2,46.7,27.2,51.2,37.6,17.7,84,71,56,30.62,30.15,21,4,21,0.01
2013-11-12,33.7,24.1,17.3,18.9,13.3,7.6,74,63,49,30.89,30.62,18,3,18,0.00
2013-11-13,48.2,34.1,17.8,23.8,17.4,8.0,69,52,32,30.73,30.21,13,3,13,0.00
2013-11-14,53.5,42.8,33.5,31.2,26.0,20.7,63,52,39,30.21,29.96,17,4,17,0.00
2013-11-15,58.6,49.6,43.1,44.5,37.5,28.5,81,63,52,29.97,29.72,11,2,11,0.00
2013-11-16,68.8,62.0,50.2,60.7,56.3,44.5,89,82,72,29.73,29.39,26,7,26,0.02
2013-11-17,66.8,57.8,45.4,61.3,36.8,22.5,84,49,23,30.05,29.30,23,3,24,0.00
2013-11-18,57.2,43.7,34.1,38.5,29.1,17.8,79,58,33,30.28,30.05,6,0,6,0.00
2013-11-19,59.8,46.1,30.7,35.8,26.7,18.7,67,48,31,30.26,29.98,15,2,15,0.00
2013-11-20,50.1,46.0,40.1,40.8,31.3,19.5,78,59,31,29.99,29.85,17,2,17,0.25
2013-11-21,50.8,42.4,28.1,46.1,38.1,25.9,92,85,73,30.42,29.95,17,3,17,0.17
2013-11-22,28.7,26.0,24.4,25.8,23.2,21.1,92,89,87,30.63,30.42,14,4,14,0.00
2013-11-23,27.0,23.1,15.7,20.0,13.9,4.7,84,68,54,30.82,30.64,7,4,17,0.00
2013-11-24,26.7,20.1,12.1,14.7,9.2,3.2,70,62,56,30.79,30.39,2,1,6,0.00
2013-11-25,36.3,31.5,27.0,21.3,18.9,14.2,68,59,53,30.38,30.20,6,1,9,0.00
2013-11-26,36.6,29.2,20.6,27.0,19.4,7.8,80,67,53,30.43,30.18,25,4,25,0.00
2013-11-27,32.7,23.6,14.8,15.9,10.4,5.1,67,57,47,30.47,30.21,8,1,8,0.00
2013-11-28,40.6,31.2,23.5,25.2,17.5,11.7,64,57,51,30.51,30.20,12,2,12,0.00
2013-11-29,51.7,34.6,23.9,34.4,22.0,15.0,72,60,45,30.51,30.27,11,1,11,0.00
2013-11-30,54.4,40.7,29.5,39.3,29.0,22.2,76,63,55,30.27,30.09,10,1,10,0.00
2013-12-1,55.7,39.1,26.4,44.2,31.4,22.2,89,75,58,30.12,29.88,8,0,8,0.00
2013-12-2,49.6,42.0,32.5,46.0,38.9,26.6,95,89,78,29.88,29.61,7,1,8,0.01
2013-12-3,57.6,45.4,39.3,52.7,42.4,35.4,98,90,75,29.60,29.52,7,1,7,0.01
2013-12-4,46.5,34.7,23.2,44.9,32.5,17.2,96,92,79,30.05,29.48,14,1,14,0.01
2013-12-5,23.0,17.9,15.7,17.2,10.7,7.7,78,73,67,30.34,30.04,15,3,15,0.00
2013-12-6,17.5,14.2,9.7,6.7,0.9,-2.9,64,55,51,30.70,30.42,13,4,13,0.00
2013-12-7,20.2,12.2,4.5,6.9,0.3,-6.1,65,58,51,30.78,30.53,10,2,10,0.00
2013-12-8,23.3,21.7,18.1,18.3,15.3,4.5,83,76,52,30.43,30.02,7,1,10,0.00
2013-12-9,20.3,12.6,9.7,16.0,6.1,1.3,83,75,67,30.46,30.21,6,1,6,0.00
2013-12-10,37.8,22.8,9.7,22.6,11.8,1.6,70,63,52,30.41,30.25,10,1,10,0.01
2013-12-11,26.7,20.1,7.7,18.2,9.4,-4.9,75,63,51,30.67,30.27,13,2,15,0.00
2013-12-12,44.6,27.5,10.9,23.3,12.8,-0.6,65,55,39,30.65,30.21,17,2,17,0.00
2013-12-13,36.6,33.3,27.8,32.8,28.4,18.4,93,82,65,30.21,29.86,6,1,6,0.05
2013-12-14,34.9,26.4,18.9,33.1,23.6,14.6,94,89,82,30.26,29.89,17,3,17,0.01
2013-12-15,48.2,32.9,16.9,36.5,25.3,13.2,87,75,59,30.25,29.99,11,1,11,0.00
2013-12-16,59.6,41.5,28.2,36.0,26.7,17.6,68,57,36,30.16,29.97,13,1,13,0.00
2013-12-17,46.0,32.1,21.8,34.2,20.9,9.7,80,64,46,30.31,30.16,12,1,13,0.00
2013-12-18,61.3,45.9,22.2,37.3,30.2,12.2,69,55,40,30.25,29.78,19,4,19,0.00
2013-12-19,56.3,53.9,49.4,51.2,45.5,36.3,84,74,54,29.78,29.61,19,3,19,0.00
2013-12-20,49.5,25.2,20.2,42.7,21.8,17.2,89,87,79,29.95,29.65,13,2,13,0.00
2013-12-21,28.4,24.5,21.0,26.4,21.8,17.8,93,89,87,29.92,29.64,9,2,9,0.01
2013-12-22,25.4,20.8,7.6,23.4,18.0,2.9,95,89,82,30.42,29.75,12,1,12,0.00
2013-12-23,13.3,8.6,0.1,7.7,3.5,-6.5,85,79,73,30.69,30.41,6,1,6,0.00
2013-12-24,30.3,16.8,-2.2,27.5,11.7,-8.7,89,80,73,30.67,30.27,8,1,8,0.00
2013-12-25,39.2,31.3,26.4,33.0,26.9,20.8,91,84,73,30.38,30.30,7,0,7,0.17
2013-12-26,46.7,35.9,19.7,33.6,27.1,14.8,86,71,59,30.36,30.21,15,2,15,0.12
2013-12-27,53.5,38.7,28.1,38.0,30.2,23.0,84,72,54,30.36,30.19,7,1,7,0.02
2013-12-28,54.4,42.5,32.7,36.6,30.4,26.6,78,63,42,30.19,29.88,17,2,17,0.00
2013-12-29,39.8,18.4,8.8,29.4,7.8,-4.4,71,63,51,30.38,29.93,20,4,20,0.00
2013-12-30,30.1,18.3,6.9,11.8,4.2,-5.5,60,54,46,30.37,30.23,11,1,11,0.00
2013-12-31,49.2,33.3,15.1,32.2,19.7,6.8,75,58,44,30.38,30.08,19,3,19,0.00
2014-1-1,38.0,22.1,9.0,22.2,12.7,2.1,74,67,52,30.33,30.02,16,3,16,0.00
2014-1-2,17.2,8.1,1.5,7.6,-0.1,-7.2,73,69,64,30.55,30.33,8,2,8,0.00